User: anonymous
Location: Unspecified
(0.0000°N, 0.0000°E)
Time: 10:21:39
(UTC+00:00)
Language:

PW SAT - Orbit

View from above orbital plane
View from above orbital plane
View from above satellite
View from above satellite

Ground track
Ground track

The orbit data is extracted from the following two-line orbital elements,

1 38083U 12006G   14265.93213023  .00357486  37991-4  18885-2 0  6346
2 38083 069.4346 062.9909 0196690 198.6088 160.7840 15.57664573138997
Epoch (UTC): 22 September 2014 22:22:16
Eccentricity: 0.0196690
inclination: 69.4346°
perigee height: 261 km
apogee height: 527 km
right ascension of ascending node: 62.9909°
argument of perigee: 198.6088°
revolutions per day: 15.57664573
mean anomaly at epoch: 160.7840°
orbit number at epoch: 13899

The dashed part of the orbit path shows where the satellite is in the earth's shadow,  

DLR